Temp
61 61 61 61 61 61 61 61 61 61 61 62 62 62 62 62 61 62 67 77 78 77 76 84 84 84 83 77 79 77 62 59 64 70 72 81 80 89 84 80 82 80 82 85 90
61 61 61 61 61 60 60 61 61 61 61 62 62 62 62 61 63 70 80 77 77 77 80 80 79 82 73 76 76 70 60 64 74 74 73 79 81 83 80 78 77 80 82 88 88
61 61 61 61 61 60 60 60 60 61 61 61 62 62 62 60 64 77 77 77 77 77 81 82 83 79 71 72 75 73 65 74 76 80 81 80 81 85 77 70 77 74 79 91 84
60 60 60 60 60 60 60 60 60 61 61 61 61 62 62 63 62 78 77 77 78 79 81 81 78 68 66 67 77 68 78 76 79 81 79 78 80 82 81 77 81 84 86 85 86
60 60 60 59 59 59 59 59 60 60 60 61 61 62 60 64 72 79 78 77 80 81 80 78 74 71 67 72 76 69 75 80 81 78 75 80 79 79 77 80 83 84 88 85 83
59 59 59 59 59 59 59 59 59 59 60 61 62 61 63 65 88 84 84 82 85 82 83 82 77 81 74 74 70 76 76 77 75 75 74 73 76 75 83 81 81 82 83 81 81
59 58 58 58 59 59 59 59 59 59 62 63 63 68 70 73 92 86 88 85 87 90 84 87 84 79 78 73 80 77 70 75 76 76 71 78 73 75 83 86 82 82 78 77 76
59 58 58 58 58 59 59 59 59 60 63 64 65 68 66 87 88 88 90 87 89 92 89 89 87 79 72 77 78 68 64 58 73 78 77 76 61 77 84 81 81 84 76 74 72
59 58 58 58 58 59 58 58 60 62 64 66 63 63 71 83 87 92 89 88 90 90 88 97 79 74 77 66 61 63 58 61 70 78 77 72 65 79 83 80 78 73 72 72 69
59 58 57 58 58 58 58 58 63 61 65 74 77 68 79 83 90 93 90 92 88 84 82 78 72 65 65 60 51 59 60 65 66 70 73 65 68 74 78 79 73 71 68 68 66
59 58 58 58 58 58 62 67 69 67 68 73 78 81 88 91 93 88 91 89 86 78 67 74 63 58 66 67 71 69 67 65 70 76 70 66 67 73 74 73 70 67 64 64 63
58 58 58 58 58 58 57 69 77 79 69 84 83 87 92 91 83 87 91 78 76 68 73 66 59 71 77 75 70 70 65 64 70 76 70 67 67 72 73 70 68 65 60 60 60
58 58 58 57 58 55 69 80 88 82 66 81 86 85 83 86 83 82 86 81 75 70 69 64 70 81 77 71 71 65 63 64 63 70 70 65 61 66 70 68 68 63 61 61 59
57 57 57 54 65 75 77 85 87 83 57 73 79 84 86 85 79 92 91 81 75 68 72 67 76 76 70 71 70 60 71 70 68 61 51 64 47 59 65 64 64 60 59 58 58
57 57 57 55 66 71 82 86 84 76 45 76 80 91 87 78 81 82 90 82 73 75 70 67 69 69 67 70 74 64 71 67 65 58 52 58 49 55 65 58 58 59 60 58 58
57 58 56 65 65 77 86 85 77 56 49 73 81 78 74 80 82 83 82 82 81 72 73 71 76 74 70 75 73 74 66 63 60 54 44 60 54 50 56 57 58 61 61 61 59
56 58 53 70 71 86 84 74 54 49 77 71 73 79 74 74 77 78 74 68 62 55 57 68 70 74 77 65 69 64 53 43 42 42 44 60 55 50 62 63 61 59 61 60 60
55 54 59 77 82 83 75 61 47 67 72 80 78 77 70 75 74 76 70 64 68 67 59 55 54 67 74 66 56 58 53 44 35 38 45 59 47 51 65 65 65 64 61 61 59
53 69 71 78 83 78 65 50 56 67 75 74 75 67 67 74 71 70 67 66 68 65 55 53 57 72 76 73 67 57 50 56 48 48 42 49 53 61 65 62 63 62 61 58 58
56 65 72 86 82 73 58 54 63 75 78 75 63 69 62 68 66 65 64 70 69 70 66 59 50 68 70 71 69 61 63 47 45 35 34 47 49 47 56 59 61 61 58 58 58
58 64 79 86 79 64 53 60 72 79 77 70 66 65 66 65 67 64 66 69 72 69 67 59 53 56 64 59 57 57 52 52 49 47 37 35 43 57 56 58 59 61 61 59 59
60 58 80 82 61 62 60 69 65 76 77 74 69 68 64 66 62 64 64 65 72 70 60 58 52 45 54 65 69 62 54 52 40 40 43 42 42 63 61 62 63 63 66 61 61
55 61 79 76 55 58 66 74 75 74 71 71 67 69 68 61 55 63 64 70 71 65 56 55 47 40 48 54 61 56 60 57 51 47 41 35 39 64 66 61 62 61 65 63 61
56 56 66 68 66 62 61 66 67 75 72 72 68 68 63 58 60 57 63 68 71 65 64 60 49 46 38 46 53 52 58 59 52 42 44 46 49 56 60 59 64 63 62 63 62
58 58 64 56 61 61 62 64 65 64 70 69 62 65 60 52 57 57 63 64 67 62 60 54 44 48 53 58 58 57 57 59 53 51 45 50 51 56 57 60 62 63 64 65 63
55 58 61 59 64 61 56 60 64 68 65 62 59 67 63 53 55 53 58 56 58 57 55 53 44 49 48 57 57 54 58 59 57 57 54 54 51 60 61 61 61 62 63 58 59
65 66 60 57 59 58 59 63 66 65 67 68 65 61 59 60 62 60 58 59 55 52 53 51 47 43 38 52 52 43 53 57 56 56 53 46 52 58 57 60 57 57 59 58 58
MSLP
1017.95 1017.62 1017.23 1016.80 1016.43 1016.08 1015.73 1015.32 1014.94 1014.66 1014.50 1014.29 1014.15 1014.05 1013.87 1013.52 1012.82 1012.68 1011.42 1009.31 1008.85 1008.74 1008.72 1008.40 1008.30 1007.96 1007.81 1007.60 1006.94 1006.68 1007.66 1007.68 1006.89 1005.48 1004.91 1003.23 1003.02 1003.64 1005.20 1005.42 1005.71 1006.75 1007.20 1007.81 1007.06
1017.96 1017.46 1017.04 1016.60 1016.17 1015.83 1015.48 1015.10 1014.75 1014.50 1014.32 1014.11 1013.98 1013.93 1013.76 1013.48 1012.85 1011.36 1009.07 1008.78 1008.78 1008.73 1008.63 1008.53 1008.29 1007.72 1007.90 1007.35 1007.04 1006.86 1007.42 1007.15 1006.23 1005.22 1005.13 1003.91 1003.71 1004.08 1005.69 1006.68 1007.59 1007.43 1008.01 1008.18 1008.11
1017.69 1017.14 1016.76 1016.33 1015.88 1015.55 1015.19 1014.81 1014.52 1014.22 1014.02 1013.90 1013.76 1013.70 1013.54 1013.45 1012.47 1009.48 1008.60 1008.66 1008.81 1008.65 1008.62 1008.41 1007.68 1007.31 1007.50 1006.92 1006.53 1006.20 1006.55 1006.00 1005.50 1005.07 1004.85 1004.44 1004.34 1004.07 1006.00 1007.45 1007.48 1008.22 1008.07 1008.31 1008.70
1017.42 1016.91 1016.49 1016.10 1015.67 1015.25 1014.94 1014.52 1014.22 1013.95 1013.81 1013.73 1013.66 1013.56 1013.35 1013.10 1011.17 1008.65 1008.48 1008.66 1008.70 1008.54 1008.54 1008.03 1007.63 1007.59 1007.29 1007.13 1005.98 1005.81 1005.32 1005.23 1004.84 1004.59 1005.00 1005.08 1004.80 1004.63 1006.00 1006.96 1006.99 1007.20 1007.22 1007.65 1008.26
1017.14 1016.66 1016.27 1015.80 1015.32 1014.91 1014.63 1014.17 1014.00 1013.81 1013.68 1013.56 1013.49 1013.42 1013.29 1012.13 1009.39 1008.22 1008.47 1008.64 1008.57 1008.47 1008.23 1007.94 1007.66 1007.28 1007.05 1006.52 1005.94 1005.35 1005.03 1004.89 1004.55 1004.58 1004.70 1004.88 1005.18 1005.31 1006.42 1006.95 1007.01 1006.79 1006.91 1007.28 1007.98
1016.90 1016.54 1016.07 1015.48 1014.98 1014.56 1014.27 1013.89 1013.81 1013.63 1013.41 1013.35 1013.35 1013.40 1012.72 1010.27 1007.50 1007.79 1007.98 1008.33 1008.15 1008.04 1007.52 1007.20 1006.98 1006.67 1006.33 1006.11 1006.00 1005.22 1005.27 1005.25 1004.89 1004.97 1004.93 1005.17 1005.31 1005.57 1005.54 1006.94 1007.12 1007.25 1007.57 1009.25 1010.61
1016.88 1016.32 1015.78 1015.22 1014.72 1014.26 1013.80 1013.53 1013.52 1013.34 1013.15 1013.19 1013.28 1013.08 1011.50 1008.41 1006.81 1007.20 1007.36 1007.27 1007.23 1007.11 1007.09 1006.60 1006.36 1006.73 1006.70 1006.38 1005.53 1005.39 1005.93 1005.62 1005.32 1005.19 1005.41 1005.34 1005.82 1005.70 1005.47 1006.53 1007.35 1008.10 1010.33 1011.82 1013.05
1016.63 1016.04 1015.53 1015.16 1014.55 1013.99 1013.49 1013.22 1013.20 1013.13 1013.07 1013.14 1013.14 1012.55 1010.19 1006.84 1006.61 1006.82 1006.76 1006.71 1006.76 1006.61 1006.59 1006.44 1006.41 1006.76 1006.77 1006.40 1006.27 1006.28 1006.39 1006.57 1005.25 1005.33 1005.61 1005.71 1005.94 1005.45 1005.33 1006.34 1007.18 1008.20 1009.83 1010.86 1011.58
1016.53 1015.90 1015.41 1014.98 1014.41 1013.82 1013.26 1012.91 1012.76 1012.80 1012.95 1013.02 1012.96 1012.00 1008.78 1006.82 1006.77 1006.49 1006.39 1006.50 1006.55 1006.52 1006.50 1006.51 1006.78 1007.07 1006.80 1007.04 1007.28 1007.03 1006.76 1006.53 1005.83 1004.94 1005.62 1005.95 1006.18 1005.78 1005.76 1006.79 1008.37 1009.81 1010.90 1011.63 1012.20
1016.45 1015.72 1015.31 1014.82 1014.28 1013.61 1012.84 1012.59 1012.25 1012.40 1012.62 1012.40 1011.61 1010.93 1007.99 1006.64 1006.36 1006.30 1006.27 1006.24 1006.41 1006.43 1006.63 1006.72 1007.03 1007.16 1007.22 1007.49 1007.97 1007.37 1007.09 1006.10 1005.64 1005.74 1005.66 1006.12 1006.43 1006.59 1006.25 1007.00 1008.95 1010.52 1011.81 1012.64 1013.39
1016.39 1015.63 1015.13 1014.76 1014.14 1013.53 1012.34 1012.20 1012.34 1012.05 1011.41 1010.20 1009.08 1007.64 1006.57 1006.50 1006.36 1006.42 1006.39 1006.31 1006.34 1006.57 1006.83 1006.76 1007.30 1007.36 1007.33 1007.10 1007.08 1007.09 1006.92 1006.69 1006.31 1006.01 1006.29 1006.64 1007.11 1007.03 1007.38 1008.33 1009.79 1011.34 1012.69 1013.79 1014.57
1016.33 1015.68 1014.92 1014.44 1013.95 1013.58 1013.25 1012.06 1010.34 1009.73 1009.25 1008.24 1007.52 1006.62 1006.11 1006.14 1006.16 1006.23 1006.31 1006.69 1006.43 1006.74 1006.60 1006.89 1007.05 1006.83 1006.60 1006.71 1006.96 1007.02 1007.23 1007.10 1006.54 1006.45 1006.77 1007.21 1007.81 1007.66 1008.26 1009.96 1010.97 1012.21 1013.82 1014.95 1015.43
1016.32 1015.68 1014.89 1013.96 1013.24 1013.35 1012.17 1010.43 1008.91 1008.66 1008.79 1006.75 1006.33 1005.88 1005.88 1005.90 1005.73 1006.00 1006.26 1006.18 1006.32 1006.43 1006.35 1006.53 1006.63 1006.34 1006.45 1006.67 1006.88 1007.36 1007.80 1007.82 1007.86 1007.69 1007.71 1008.36 1008.75 1008.66 1010.19 1010.90 1012.05 1013.75 1014.85 1015.71 1016.32
1016.51 1015.61 1015.04 1014.13 1012.91 1012.02 1010.61 1009.21 1008.56 1008.66 1008.70 1006.33 1005.49 1004.95 1005.35 1005.41 1005.41 1005.47 1005.76 1006.03 1006.01 1006.10 1006.20 1006.29 1006.33 1006.42 1006.54 1006.82 1007.02 1007.81 1008.26 1008.58 1008.90 1009.40 1009.66 1009.52 1010.12 1009.35 1010.51 1011.85 1013.06 1014.75 1015.84 1016.80 1017.27
1016.61 1015.72 1014.70 1015.21 1013.50 1011.85 1009.69 1008.83 1008.85 1009.07 1008.21 1005.29 1004.83 1004.38 1004.79 1005.48 1005.55 1005.67 1005.80 1006.07 1006.38 1006.49 1006.60 1006.62 1006.65 1006.54 1006.80 1007.45 1007.68 1008.45 1008.83 1009.56 1010.05 1010.62 1010.95 1010.36 1011.05 1010.30 1010.78 1012.77 1014.08 1015.26 1016.27 1017.25 1017.70
1016.35 1015.75 1015.17 1013.92 1013.25 1010.79 1009.55 1009.11 1009.21 1009.49 1006.85 1004.91 1004.55 1004.72 1005.11 1005.16 1005.23 1005.91 1006.15 1006.43 1006.58 1006.87 1006.94 1006.99 1006.74 1006.75 1007.11 1007.61 1008.15 1008.74 1009.48 1010.14 1010.56 1011.27 1012.21 1010.02 1011.38 1011.43 1011.60 1012.88 1014.36 1015.43 1016.41 1017.28 1018.02
1015.81 1014.87 1015.23 1013.64 1011.83 1009.81 1009.54 1009.70 1009.91 1008.51 1005.26 1004.80 1004.68 1004.63 1005.14 1005.33 1005.42 1005.73 1006.30 1006.75 1007.18 1007.63 1007.89 1007.57 1006.89 1006.89 1007.46 1008.18 1008.66 1009.26 1010.47 1011.54 1012.32 1012.62 1012.15 1011.16 1010.67 1012.21 1012.25 1013.10 1014.22 1015.56 1016.62 1017.36 1017.91
1015.39 1013.91 1012.94 1011.84 1010.65 1010.41 1010.25 1010.52 1009.64 1007.13 1005.75 1004.64 1004.55 1004.67 1005.11 1005.20 1005.46 1005.85 1006.58 1007.14 1007.48 1007.58 1008.14 1008.69 1008.22 1008.16 1008.39 1008.85 1009.66 1010.35 1011.03 1012.45 1013.38 1013.82 1013.26 1012.00 1012.30 1012.93 1012.90 1013.60 1014.40 1015.41 1016.37 1017.24 1018.02
1015.03 1013.17 1012.17 1010.57 1010.19 1010.42 1010.91 1010.56 1008.59 1007.00 1006.29 1005.41 1005.12 1005.34 1005.53 1005.57 1005.97 1006.27 1006.86 1007.52 1008.23 1008.43 1009.33 1009.71 1009.49 1009.11 1008.99 1009.42 1010.13 1010.83 1011.71 1012.38 1013.46 1013.96 1014.37 1013.34 1013.40 1013.12 1013.08 1013.90 1014.63 1015.56 1016.43 1017.25 1017.98
1015.95 1013.68 1010.97 1009.29 1009.60 1010.27 1010.96 1010.09 1008.51 1007.27 1006.56 1006.30 1006.08 1005.83 1006.09 1006.09 1006.41 1006.84 1007.42 1007.86 1008.75 1009.39 1009.75 1010.63 1010.74 1010.10 1010.14 1010.11 1010.21 1010.77 1011.78 1012.76 1013.91 1015.16 1015.14 1013.89 1013.43 1013.26 1013.54 1013.93 1014.67 1015.39 1016.21 1017.04 1017.56
1015.92 1013.55 1009.58 1008.55 1009.24 1010.40 1010.66 1009.47 1007.98 1007.27 1007.16 1007.09 1006.98 1006.97 1007.01 1006.86 1007.01 1007.28 1007.74 1008.80 1009.12 1010.04 1010.46 1011.22 1011.84 1011.64 1011.18 1010.81 1010.84 1011.29 1012.11 1013.29 1014.51 1015.36 1015.79 1015.30 1014.34 1013.27 1013.74 1013.84 1014.04 1014.45 1015.34 1015.93 1016.50
1016.10 1013.60 1009.38 1008.75 1009.90 1009.93 1009.94 1008.99 1008.26 1007.43 1007.38 1007.48 1007.66 1007.87 1007.89 1007.99 1008.18 1008.25 1008.68 1009.55 1010.10 1010.61 1011.60 1012.36 1012.99 1013.23 1012.56 1011.37 1011.60 1011.88 1012.63 1013.68 1015.36 1016.04 1016.12 1015.77 1014.68 1013.32 1013.19 1013.19 1013.38 1013.62 1013.87 1014.81 1015.46
1017.01 1013.59 1009.67 1009.15 1009.89 1009.99 1009.33 1008.40 1007.91 1007.61 1007.83 1007.82 1008.15 1008.37 1008.55 1008.87 1009.26 1009.34 1009.62 1010.50 1010.93 1011.63 1012.70 1013.43 1014.10 1014.39 1013.36 1012.45 1012.32 1012.60 1013.02 1013.63 1014.58 1015.36 1016.08 1016.11 1014.76 1013.06 1012.99 1013.23 1013.22 1013.37 1013.53 1014.11 1014.92
1017.59 1014.07 1010.71 1009.89 1009.71 1009.98 1009.68 1008.72 1008.21 1008.06 1008.43 1008.68 1008.99 1009.26 1009.47 1009.71 1009.95 1010.23 1010.41 1011.01 1011.45 1012.24 1012.99 1013.76 1014.82 1015.24 1015.08 1014.20 1013.96 1013.59 1013.40 1013.52 1014.23 1015.10 1015.37 1015.07 1014.27 1013.35 1012.75 1012.51 1012.54 1012.53 1012.91 1013.51 1014.23
1017.30 1014.32 1012.37 1011.31 1010.85 1010.43 1010.01 1009.65 1008.95 1008.70 1008.90 1009.15 1009.75 1010.05 1010.36 1010.77 1010.98 1011.07 1010.88 1011.29 1011.73 1012.74 1013.48 1014.44 1015.51 1015.59 1015.42 1014.86 1014.30 1013.87 1013.53 1013.40 1013.58 1013.89 1014.28 1014.20 1013.79 1013.19 1012.78 1012.57 1012.41 1012.60 1013.16 1013.69 1014.41
1016.92 1014.44 1013.14 1012.56 1011.37 1010.94 1010.70 1010.11 1009.66 1009.20 1009.54 1009.80 1010.28 1010.47 1010.79 1011.25 1011.76 1012.15 1012.03 1012.29 1012.56 1013.45 1013.92 1014.86 1015.73 1015.95 1015.94 1015.52 1014.84 1013.96 1013.33 1012.80 1012.69 1013.05 1013.40 1013.48 1013.46 1012.61 1012.35 1012.70 1013.02 1013.37 1013.87 1014.85 1015.44
1015.37 1014.33 1013.45 1012.65 1011.91 1011.26 1010.65 1009.99 1009.73 1010.04 1010.44 1010.59 1010.89 1011.28 1011.58 1012.25 1012.34 1012.51 1012.62 1012.75 1013.01 1013.47 1014.24 1015.07 1015.81 1016.38 1016.51 1016.20 1015.44 1014.31 1012.87 1012.42 1012.38 1012.79 1013.43 1014.01 1013.74 1013.37 1013.54 1013.89 1014.35 1014.54 1014.96 1015.60 1016.03
Wind_Speed
15 15 14 13 12 11 11 11 12 12 11 12 12 11 11 12 16 3 5 3 3 1 2 6 7 10 9 6 6 4 5 7 7 12 6 8 9 14 13 15 11 8 6 7 7
15 15 14 13 12 12 11 11 11 12 11 11 10 9 9 10 4 8 5 2 0 1 2 6 7 9 3 7 5 5 3 8 3 5 7 10 11 7 12 16 10 12 17 15 10
16 15 15 14 13 12 12 11 12 12 11 10 9 8 7 6 3 4 7 4 3 1 3 6 10 4 6 5 9 8 7 7 2 8 9 10 11 7 13 5 13 24 21 10 5
18 17 16 15 14 13 12 11 12 12 11 10 8 7 6 4 4 3 7 6 3 2 4 7 7 4 4 6 10 5 8 4 4 7 8 7 4 8 8 8 11 16 21 19 8
19 18 17 16 15 13 12 11 12 11 10 8 6 5 4 2 7 4 8 7 3 3 6 8 7 5 6 6 8 3 3 7 5 5 3 4 6 7 6 11 10 9 11 10 3
18 18 18 17 15 14 12 10 10 9 8 5 4 3 2 4 8 10 10 7 7 8 8 9 6 8 5 7 6 5 5 7 3 5 3 2 3 1 8 14 12 10 12 12 15
18 17 17 17 16 15 12 11 10 9 7 3 3 4 4 10 10 11 11 8 7 7 6 7 5 8 10 9 10 6 6 9 7 5 2 6 6 9 11 14 15 14 22 18 19
20 18 17 18 16 14 13 11 11 9 7 3 3 4 6 2 3 6 8 3 0 8 5 7 9 6 3 6 8 2 3 5 13 8 6 9 9 15 12 10 9 16 18 18 23
21 19 18 17 15 14 12 11 11 7 5 2 2 3 7 0 3 7 5 4 5 4 4 3 2 5 8 4 6 4 8 7 6 9 6 5 4 7 11 11 14 19 17 17 19
22 20 18 16 14 13 14 8 3 10 5 7 7 5 7 3 3 4 3 1 6 3 4 4 3 2 5 3 4 5 4 9 9 5 5 1 6 5 3 11 18 18 16 17 19
23 22 19 16 12 11 9 2 3 2 4 8 6 5 6 7 3 5 2 6 4 4 6 8 3 5 6 3 6 5 6 7 3 5 6 4 4 11 0 16 16 17 16 16 16
24 23 22 18 12 8 3 3 5 7 8 14 19 5 9 8 6 7 6 4 5 8 9 0 1 3 4 3 2 5 6 9 4 10 8 5 7 10 8 12 15 17 15 14 13
25 24 23 24 18 1 4 8 8 6 3 10 14 6 4 6 6 9 7 6 8 8 5 7 5 4 3 5 6 4 7 7 4 7 9 5 9 8 12 19 20 19 16 15 13
25 25 22 28 2 5 5 5 7 5 2 7 8 8 6 8 1 10 6 3 5 3 7 2 6 4 3 3 4 4 9 10 10 8 3 7 7 4 15 16 18 17 14 11 10
24 25 25 8 6 5 6 7 5 5 2 10 8 8 8 5 10 5 5 4 7 9 4 8 2 3 1 7 8 3 8 7 5 7 5 11 1 6 18 13 14 15 13 12 9
25 23 21 3 4 10 11 8 4 2 7 9 7 7 5 7 5 7 5 3 5 5 8 7 2 3 2 6 3 5 4 7 6 3 3 20 9 6 7 16 12 14 12 12 9
27 26 9 6 6 10 7 5 1 4 5 7 13 9 8 8 8 7 6 6 5 3 5 6 10 4 8 1 6 4 6 4 6 4 9 10 3 4 11 16 18 14 11 8 8
30 29 8 7 7 8 5 3 4 9 11 7 1 5 4 9 8 8 2 6 4 3 2 3 5 4 2 4 2 4 2 5 3 4 7 10 4 2 15 16 15 14 11 9 8
28 3 4 6 11 2 3 2 5 4 7 9 6 1 5 6 4 3 5 6 5 7 6 4 2 1 5 7 5 3 3 3 0 4 2 4 4 5 13 13 14 14 12 9 9
6 5 6 11 7 3 1 5 6 13 6 8 5 5 4 8 8 6 4 4 6 7 6 4 5 3 2 3 6 7 2 5 4 2 3 4 0 6 8 7 14 12 12 10 9
3 5 4 1 5 2 4 7 7 9 6 6 6 7 10 5 7 2 4 10 7 7 6 3 3 7 8 2 3 4 1 2 2 3 3 1 6 6 8 6 7 5 15 15 14
4 4 3 2 1 4 7 7 5 2 6 2 1 5 4 7 7 5 5 6 7 7 4 2 3 3 6 13 5 6 2 4 6 6 2 3 6 6 9 9 8 8 6 14 12
5 5 7 3 3 4 7 13 3 3 2 2 1 3 7 5 4 5 3 6 5 5 3 3 3 2 8 5 5 3 4 4 3 3 3 2 7 5 5 5 4 5 4 11 10
3 5 5 3 4 4 4 6 2 5 2 3 6 7 6 2 3 2 3 5 5 5 9 7 2 3 5 6 4 6 9 6 7 4 6 7 8 6 4 2 7 6 5 6 11
3 6 5 4 5 6 3 6 9 3 5 6 1 5 4 3 5 6 8 7 6 10 4 6 3 3 6 8 11 11 11 12 8 7 5 6 7 8 4 8 4 4 7 8 10
3 3 3 5 6 3 1 5 7 4 3 1 3 6 5 3 2 5 6 6 4 2 7 5 4 4 5 8 11 15 15 15 5 6 6 8 7 7 5 8 9 8 9 11 12
3 4 0 6 6 2 6 7 2 6 6 3 5 6 7 9 8 6 3 3 3 2 0 6 3 1 4 6 11 10 7 6 2 3 4 4 7 6 9 13 12 12 11 8 6
Wind_Direction
335 330 325 324 322 318 317 316 314 314 313 310 312 312 320 318 301 214 254 245 198 324 296 277 245 235 256 267 272 294 31 300 292 28 331 10 57 49 77 70 54 36 53 334 159
331 330 326 324 323 319 317 315 314 311 311 308 308 314 316 325 275 252 224 200 290 25 273 289 297 232 235 254 275 134 141 252 289 50 16 357 44 18 87 91 71 58 9 357 336
333 334 327 326 325 318 316 317 316 316 314 311 310 312 309 313 301 210 175 203 219 150 275 275 274 326 230 265 260 247 214 253 20 51 32 346 18 358 113 51 144 130 118 342 289
336 334 329 324 320 319 313 319 321 322 317 310 306 301 316 248 49 135 181 204 217 340 280 290 293 298 273 254 268 265 276 323 331 52 23 345 1 336 77 165 169 147 154 177 209
338 335 327 322 320 318 311 322 323 320 314 305 298 298 283 220 253 137 166 195 187 194 231 247 274 255 259 271 305 178 326 320 30 27 329 7 347 308 97 161 163 151 146 177 86
337 331 326 323 319 316 311 320 318 319 313 299 289 317 258 288 137 151 182 164 235 217 257 255 265 300 287 315 326 10 4 337 24 285 303 163 290 57 280 172 162 160 173 64 84
336 331 327 325 317 314 315 322 320 323 323 305 255 261 272 249 145 171 193 202 223 240 291 308 19 14 332 324 326 14 8 320 285 241 165 82 324 268 265 153 156 176 82 73 78
339 337 331 323 316 313 316 318 313 310 314 285 242 265 256 158 332 173 233 175 281 277 301 342 6 309 275 302 336 274 274 256 265 194 183 105 274 260 224 111 95 62 64 49 49
342 340 334 328 321 315 309 305 298 292 259 203 232 231 271 4 218 235 243 233 186 247 257 300 296 242 308 270 335 286 241 233 311 131 144 146 274 359 113 114 87 79 63 49 41
344 343 338 333 325 318 304 271 272 311 209 208 257 303 272 189 128 137 261 360 226 218 260 203 221 243 317 56 248 331 293 309 148 180 111 33 304 322 155 100 96 87 71 56 45
345 345 339 332 331 330 340 309 347 323 246 228 273 225 121 81 143 229 205 236 261 237 246 226 131 223 229 61 5 325 342 338 83 142 116 131 275 288 191 103 93 84 73 61 48
346 344 339 329 318 317 296 270 327 259 304 236 259 282 115 187 182 150 198 230 202 230 247 336 247 43 22 96 342 345 325 304 5 20 58 17 290 284 73 98 92 88 77 67 47
342 341 340 328 317 226 230 286 281 298 290 288 212 220 194 208 204 160 193 246 250 273 253 201 156 128 65 335 318 4 36 7 18 4 347 353 293 259 99 101 94 83 80 68 60
337 335 341 329 351 320 266 293 351 43 323 242 207 202 182 219 226 149 202 284 297 297 342 93 117 53 9 300 16 74 12 9 358 15 283 63 285 333 133 113 97 93 85 78 70
333 331 331 301 285 308 328 310 35 45 310 138 175 154 168 210 135 178 78 309 275 322 87 248 53 157 267 64 41 316 32 342 310 296 331 276 290 281 135 111 101 99 101 102 87
329 327 334 128 227 247 289 340 26 15 249 185 134 180 211 227 164 139 169 200 272 310 315 263 167 137 91 39 346 281 308 298 276 185 295 260 175 308 173 132 110 104 104 111 118
325 319 312 307 250 324 360 346 12 226 151 150 162 182 199 199 224 160 192 191 206 179 274 309 235 122 89 349 17 45 25 342 349 9 234 330 316 157 87 114 117 116 112 109 109
322 315 209 227 267 307 13 360 249 267 304 116 121 148 212 215 196 163 112 312 38 301 89 336 344 3 135 85 63 323 170 151 261 323 308 330 99 160 104 109 113 122 122 124 129
314 297 247 245 231 247 48 254 238 336 2 356 151 279 208 253 62 46 155 248 54 45 97 25 99 62 88 68 87 338 346 194 214 278 333 232 66 76 125 129 130 136 140 151 157
319 292 255 243 156 87 108 258 289 305 7 354 332 183 235 239 161 157 237 94 100 83 73 20 339 340 164 166 240 169 214 16 349 219 280 314 355 182 151 132 153 152 155 165 175
285 307 267 221 95 97 218 241 297 64 22 13 359 332 339 9 17 128 70 47 49 111 97 71 107 298 359 230 296 36 353 21 123 122 177 300 291 122 125 132 133 161 171 175 182
315 294 254 135 100 218 235 248 277 107 117 326 35 316 345 354 8 24 33 77 38 56 46 55 110 313 276 288 357 75 39 108 121 286 323 165 268 146 158 168 177 220 205 186 182
309 260 277 122 228 264 293 235 168 38 4 32 246 307 35 19 31 356 12 115 90 79 92 337 3 327 307 18 44 74 319 327 200 128 224 155 262 249 120 83 350 301 84 176 174
295 302 301 156 223 256 324 320 236 96 7 355 345 355 15 10 322 314 325 145 158 111 130 91 129 168 214 265 304 317 309 247 219 190 229 224 255 292 258 44 255 246 146 135 183
235 259 331 312 346 356 3 334 317 142 191 117 282 264 235 224 292 285 233 135 169 149 100 113 180 254 277 303 305 299 287 287 277 256 247 250 269 272 257 223 213 116 72 58 53
267 339 341 278 280 317 316 275 279 275 77 60 321 260 337 232 5 23 32 45 51 263 142 166 208 222 276 306 302 291 294 283 258 286 316 327 328 280 325 74 67 63 51 75 70
299 314 67 283 310 255 243 233 71 57 5 302 336 358 359 36 15 352 15 2 17 47 217 148 161 57 259 308 315 307 257 321 73 45 22 341 269 336 43 55 47 60 61 79 86